Silver City, NM

3:56 PM MST on December 13, 2017 (GMT -0700)
Grant County

Weather History for KSVC - February, 2013

Change the Weather History Date:

Tuesday, February 19, 2013

  Actual Average (KDMN) Record (KDMN)
Temperature  
Mean Temperature 40 °F -  
Max Temperature 55 °F 64 °F 80 °F (1986)
Min Temperature 26 °F 30 °F 12 °F (1966)
Degree Days  
Heating Degree Days 24    
Moisture  
Dew Point 18 °F    
Average Humidity 42    
Maximum Humidity 81    
Minimum Humidity 14    
Precipitation  
Precipitation 0.00 in - - ()
Sea Level Pressure  
Sea Level Pressure 29.95 in    
Wind  
Wind Speed 10 mph (SW)    
Max Wind Speed 30 mph    
Max Gust Speed 40 mph    
Visibility 10 miles    
Events      
Averages and records for this station are not official NWS values.
T = Trace of Precipitation, MM = Missing Value Source: NWS Daily Summary

Daily Weather History Graph

Daily Weather History Graph

Search for Another Location

Airport or City:

Trip Planner

Search our weather history database for the weather conditions in past years. The results will help you decide how hot, cold, wet, or windy it might be!

Date:

Astronomy

Feb. 19, 2013 Rise Set
Actual Time 6:51 AM MST 6:02 PM MST
Civil Twilight 6:26 AM MST 6:27 PM MST
Nautical Twilight 5:57 AM MST 6:55 PM MST
Astronomical Twilight 5:28 AM MST 7:24 PM MST
Moon 12:46 PM MST (2/19) 2:15 AM MST (2/19)
Length of Visible Light 12h 00m
Length of Day
11h 10m
Waxing Gibbous, 68% of the Moon is Illuminated
Feb 19
Waxing Gibbous
Feb 25
Full
Mar 4
Last Quarter
Mar 11
New
Mar 19
First Quarter

Hourly Weather History & Observations

Time (MST) Temp. Windchill Dew Point Humidity Pressure Visibility Wind Dir Wind Speed Gust Speed Precip Events Conditions
12:15 AM 32.0 °F 27.5 °F 3.2 °F 30% 30.06 in 10.0 mi NW 4.6 mph - N/A   Clear
12:35 AM 32.0 °F 26.4 °F 3.2 °F 30% 30.06 in 10.0 mi NNW 5.8 mph - N/A   Clear
12:55 AM 32.0 °F 26.4 °F 3.2 °F 30% 30.06 in 10.0 mi NNW 5.8 mph - N/A   Clear
1:15 AM 32.0 °F 25.6 °F 5.0 °F 32% 30.06 in 10.0 mi NNW 6.9 mph - N/A   Clear
1:35 AM 32.0 °F 25.6 °F 5.0 °F 32% 30.06 in 10.0 mi North 6.9 mph - N/A   Clear
2:15 AM 32.0 °F 28.7 °F 5.0 °F 32% 30.06 in 10.0 mi NE 3.5 mph - N/A   Clear
2:35 AM 28.4 °F 24.6 °F 5.0 °F 37% 30.05 in 10.0 mi ENE 3.5 mph - N/A   Clear
2:55 AM 28.4 °F 24.6 °F 5.0 °F 37% 30.05 in 10.0 mi North 3.5 mph - N/A   Clear
3:15 AM 26.6 °F 20.0 °F 5.0 °F 40% 30.03 in 10.0 mi NNE 5.8 mph - N/A   Clear
3:35 AM 26.6 °F 21.2 °F 5.0 °F 40% 30.03 in 10.0 mi NNE 4.6 mph - N/A   Clear
3:55 AM 28.4 °F 24.6 °F 5.0 °F 37% 30.03 in 10.0 mi North 3.5 mph - N/A   Clear
4:15 AM 32.0 °F 27.5 °F 3.2 °F 30% 30.02 in 10.0 mi NNE 4.6 mph - N/A   Clear
4:35 AM 32.0 °F 27.5 °F 3.2 °F 30% 30.02 in 10.0 mi NNE 4.6 mph - N/A   Clear
4:55 AM 26.6 °F 19.1 °F 5.0 °F 40% 30.03 in 10.0 mi NW 6.9 mph - N/A   Clear
5:15 AM 26.6 °F 19.1 °F 3.2 °F 37% 30.02 in 10.0 mi NNW 6.9 mph - N/A   Clear
5:35 AM 26.6 °F 19.1 °F 5.0 °F 40% 30.02 in 10.0 mi NNW 6.9 mph - N/A   Clear
5:55 AM 28.4 °F 20.4 °F 5.0 °F 37% 30.01 in 10.0 mi NNE 8.1 mph - N/A   Clear
6:15 AM 28.4 °F 20.4 °F 5.0 °F 37% 30.01 in 10.0 mi NNE 8.1 mph - N/A   Clear
6:35 AM 30.2 °F 22.6 °F 5.0 °F 34% 30.01 in 10.0 mi NNE 8.1 mph - N/A   Clear
6:55 AM 28.4 °F 21.2 °F 5.0 °F 37% 30.03 in 10.0 mi North 6.9 mph - N/A   Clear
7:35 AM 32.0 °F 28.7 °F 6.8 °F 35% 30.04 in 10.0 mi NNW 3.5 mph - N/A   Clear
7:55 AM 35.6 °F 32.8 °F 6.8 °F 30% 30.04 in 10.0 mi NNE 3.5 mph - N/A   Clear
8:15 AM 41.0 °F - 6.8 °F 24% 30.05 in 10.0 mi Calm Calm - N/A   Clear
9:15 AM 50.0 °F - 3.2 °F 15% 30.03 in 10.0 mi ESE 6.9 mph - N/A   Clear
9:35 AM 50.0 °F - 3.2 °F 15% 30.03 in 10.0 mi SE 9.2 mph - N/A   Clear
9:55 AM 51.8 °F - 5.0 °F 15% 30.02 in 10.0 mi SSE 6.9 mph - N/A   Clear
10:15 AM 53.6 °F - 5.0 °F 14% 30.02 in 10.0 mi South 9.2 mph - N/A   Clear
10:35 AM 55.4 °F - 10.4 °F 17% 30.01 in 10.0 mi South 17.3 mph 23.0 mph N/A   Clear
10:55 AM 55.4 °F - 10.4 °F 17% 30.00 in 10.0 mi South 11.5 mph 18.4 mph N/A   Clear
11:15 AM 55.4 °F - 10.4 °F 17% 30.00 in 10.0 mi SSE 13.8 mph 23.0 mph N/A   Partly Cloudy
11:35 AM 55.4 °F - 14.0 °F 20% 29.98 in 10.0 mi South 19.6 mph 24.2 mph N/A   Partly Cloudy
11:55 AM 55.4 °F - 10.4 °F 17% 29.98 in 10.0 mi SSE 13.8 mph 19.6 mph N/A   Clear
12:15 PM 55.4 °F - 12.2 °F 18% 29.97 in 10.0 mi South 11.5 mph 23.0 mph N/A   Clear
12:35 PM 55.4 °F - 17.6 °F 23% 29.95 in 10.0 mi South 16.1 mph 24.2 mph N/A   Clear
12:55 PM 55.4 °F - 17.6 °F 23% 29.94 in 10.0 mi SSW 16.1 mph 21.9 mph N/A   Clear
1:15 PM 53.6 °F - 19.4 °F 26% 29.93 in 10.0 mi South 12.7 mph - N/A   Mostly Cloudy
1:35 PM 53.6 °F - 28.4 °F 38% 29.91 in 10.0 mi SW 24.2 mph 29.9 mph N/A   Mostly Cloudy
1:55 PM 53.6 °F - 32.0 °F 44% 29.90 in 9.0 mi SW 24.2 mph 36.8 mph N/A   Partly Cloudy
2:15 PM 53.6 °F - 32.0 °F 44% 29.89 in 10.0 mi SW 27.6 mph 36.8 mph N/A   Clear
2:35 PM 53.6 °F - 32.0 °F 44% 29.89 in 10.0 mi SW 23.0 mph 34.5 mph N/A   Clear
2:55 PM 50.0 °F - 32.0 °F 50% 29.89 in 10.0 mi SW 26.5 mph 39.1 mph N/A   Clear
3:15 PM 50.0 °F - 32.0 °F 50% 29.89 in 10.0 mi SW 28.8 mph 36.8 mph N/A   Clear
3:35 PM 53.6 °F - 32.0 °F 44% 29.89 in 10.0 mi SW 29.9 mph 35.7 mph N/A   Clear
3:55 PM 53.6 °F - 32.0 °F 44% 29.88 in 10.0 mi SW 24.2 mph 33.4 mph N/A   Clear
4:15 PM 53.6 °F - 32.0 °F 44% 29.87 in 8.0 mi SW 26.5 mph 40.3 mph N/A   Clear
5:35 PM 48.2 °F - 33.8 °F 58% 29.87 in 10.0 mi SW 21.9 mph 34.5 mph N/A   Clear
6:15 PM 46.4 °F 39.8 °F 33.8 °F 62% 29.87 in 10.0 mi SW 16.1 mph 29.9 mph N/A   Clear
6:35 PM 44.6 °F 36.6 °F 33.8 °F 66% 29.86 in 10.0 mi SW 19.6 mph 26.5 mph N/A   Clear
6:55 PM 44.6 °F 36.6 °F 33.8 °F 66% 29.87 in 10.0 mi SW 19.6 mph 25.3 mph N/A   Clear
7:15 PM 44.6 °F 36.4 °F 33.8 °F 66% 29.86 in 10.0 mi SW 20.7 mph 29.9 mph N/A   Clear
7:35 PM 44.6 °F 36.9 °F 33.8 °F 66% 29.85 in 10.0 mi SW 18.4 mph 31.1 mph N/A   Clear
7:55 PM 44.6 °F 36.1 °F 33.8 °F 66% 29.85 in 10.0 mi SW 21.9 mph 29.9 mph N/A   Clear
8:15 PM 44.6 °F 36.9 °F 32.0 °F 61% 29.85 in 10.0 mi SW 18.4 mph 29.9 mph N/A   Clear
8:35 PM 44.6 °F 36.9 °F 32.0 °F 61% 29.86 in 10.0 mi SW 18.4 mph 25.3 mph N/A   Clear
8:55 PM 42.8 °F 35.1 °F 32.0 °F 66% 29.87 in 10.0 mi SW 16.1 mph 19.6 mph N/A   Clear
9:15 PM 44.6 °F 37.4 °F 32.0 °F 61% 29.87 in 10.0 mi SW 16.1 mph 23.0 mph N/A   Scattered Clouds
9:35 PM 44.6 °F 38.4 °F 32.0 °F 61% 29.86 in 10.0 mi SW 12.7 mph 20.7 mph N/A   Partly Cloudy
9:55 PM 42.8 °F 37.5 °F 32.0 °F 66% 29.87 in 10.0 mi SW 9.2 mph - N/A   Clear
10:15 PM 41.0 °F 35.2 °F 32.0 °F 70% 29.87 in 10.0 mi South 9.2 mph - N/A   Clear
10:35 PM 39.2 °F - 30.2 °F 70% 29.86 in 10.0 mi Calm Calm - N/A   Clear
10:55 PM 39.2 °F 35.0 °F 32.0 °F 75% 29.85 in 10.0 mi East 5.8 mph - N/A   Clear
11:15 PM 37.4 °F 32.1 °F 32.0 °F 81% 29.84 in 10.0 mi ESE 6.9 mph - N/A   Clear
11:35 PM 35.6 °F 30.7 °F 30.2 °F 81% 29.84 in 10.0 mi NE 5.8 mph - N/A   Clear
11:55 PM 35.6 °F 29.9 °F 30.2 °F 81% 29.84 in 10.0 mi ENE 6.9 mph - N/A   Clear